Tehachapi, CA

3:02 AM PDT on October 17, 2017 (GMT -0700)
Tehachapi Municipal

Weather History for KTSP - May, 2014

Change the Weather History Date:

Sunday, May 18, 2014

  Actual Average Record
Temperature  
Mean Temperature 58 °F -  
Max Temperature 66 °F 73 °F 77 °F (2016)
Min Temperature 50 °F 45 °F 35 °F (2017)
Degree Days  
Heating Degree Days 7    
Growing Degree Days 8 (Base 50)    
Moisture  
Dew Point 37 °F    
Average Humidity 44    
Maximum Humidity 66    
Minimum Humidity 29    
Precipitation  
Precipitation 0.00 in - - ()
Sea Level Pressure  
Sea Level Pressure 29.96 in    
Wind  
Wind Speed 20 mph (WNW)    
Max Wind Speed 29 mph    
Max Gust Speed 36 mph    
Visibility 10 miles    
Events      
Averages and records for this station are not official NWS values.
T = Trace of Precipitation, MM = Missing Value Source: NWS Daily Summary

Daily Weather History Graph

Daily Weather History Graph

Search for Another Location

Airport or City:

Trip Planner

Search our weather history database for the weather conditions in past years. The results will help you decide how hot, cold, wet, or windy it might be!

Date:

Astronomy

May. 18, 2014 Rise Set
Actual Time 5:47 AM PDT 7:53 PM PDT
Civil Twilight 5:19 AM PDT 8:21 PM PDT
Nautical Twilight 4:44 AM PDT 8:56 PM PDT
Astronomical Twilight 4:07 AM PDT 9:33 PM PDT
Moon 11:48 PM PDT (5/18) 9:40 AM PDT (5/18)
Length of Visible Light 15h 02m
Length of Day
14h 05m
Waning Gibbous, 80% of the Moon is Illuminated
May 18
Waning Gibbous
May 21
Last Quarter
May 28
New
Jun 5
First Quarter
Jun 12
Full

Hourly Weather History & Observations

Time (PDT) Temp. Dew Point Humidity Pressure Visibility Wind Dir Wind Speed Gust Speed Precip Events Conditions
12:15 AM 60.8 °F 28.4 °F 29% 30.00 in 10.0 mi WNW 21.9 mph - N/A   Clear
12:35 AM 59.0 °F 28.4 °F 31% 29.99 in 10.0 mi West 18.4 mph 25.3 mph N/A   Clear
12:55 AM 59.0 °F 30.2 °F 34% 29.99 in 10.0 mi West 20.7 mph 26.5 mph N/A   Clear
1:15 AM 57.2 °F 32.0 °F 38% 29.99 in 10.0 mi West 18.4 mph - N/A   Clear
1:55 AM 55.4 °F 32.0 °F 41% 29.99 in 10.0 mi West 19.6 mph - N/A   Clear
2:15 AM - - N/A% - - North - - N/A   Unknown
2:35 AM 55.4 °F 32.0 °F 41% 29.99 in 10.0 mi West 19.6 mph 27.6 mph N/A   Unknown
2:55 AM 55.4 °F 32.0 °F 41% 29.98 in 10.0 mi West 19.6 mph 24.2 mph N/A   Clear
3:15 AM 55.4 °F 32.0 °F 41% 29.98 in 10.0 mi West 17.3 mph - N/A   Clear
3:35 AM 53.6 °F 28.4 °F 38% 29.98 in 10.0 mi WNW 17.3 mph 21.9 mph N/A   Clear
3:55 AM - - N/A% - 10.0 mi North - - N/A   Unknown
4:15 AM 51.8 °F 32.0 °F 47% 29.97 in 10.0 mi WNW 17.3 mph 21.9 mph N/A   Unknown
4:35 AM 51.8 °F 32.0 °F 47% 29.97 in 10.0 mi WNW 16.1 mph 21.9 mph N/A   Clear
4:55 AM 50.0 °F 32.0 °F 50% 29.97 in 10.0 mi NW 17.3 mph 21.9 mph N/A   Unknown
5:15 AM 50.0 °F 33.8 °F 54% 29.97 in 10.0 mi WNW 16.1 mph - N/A   Clear
5:35 AM 51.8 °F 33.8 °F 50% 29.97 in 10.0 mi West 20.7 mph 26.5 mph N/A   Clear
5:55 AM - - N/A% - 8.0 mi North - - N/A   Unknown
6:15 AM 50.0 °F 35.6 °F 58% 29.98 in 8.0 mi West 21.9 mph 28.8 mph N/A   Clear
6:35 AM 50.0 °F 35.6 °F 58% 29.99 in 9.0 mi West 19.6 mph 28.8 mph N/A   Clear
6:55 AM 50.0 °F 37.4 °F 62% 29.99 in 8.0 mi West 21.9 mph 28.8 mph N/A   Clear
7:15 AM 50.0 °F 39.2 °F 66% 29.99 in 8.0 mi West 21.9 mph 27.6 mph N/A   Clear
7:35 AM 51.8 °F 39.2 °F 62% 29.99 in 8.0 mi West 21.9 mph 29.9 mph N/A   Clear
7:55 AM 53.6 °F 39.2 °F 58% 30.00 in 9.0 mi West 16.1 mph 23.0 mph N/A   Clear
8:15 AM 51.8 °F 39.2 °F 62% 30.00 in 9.0 mi NW 17.3 mph - N/A   Clear
8:35 AM 53.6 °F 39.2 °F 58% 30.00 in 9.0 mi NW 19.6 mph 25.3 mph N/A   Clear
8:55 AM 57.2 °F 39.2 °F 51% 30.00 in - NW 18.4 mph 25.3 mph N/A   Unknown
9:15 AM 57.2 °F 37.4 °F 48% 29.99 in 9.0 mi NW 20.7 mph 27.6 mph N/A   Clear
9:35 AM 59.0 °F 37.4 °F 45% 29.99 in 10.0 mi NW 19.6 mph 28.8 mph N/A   Clear
9:55 AM 59.0 °F 37.4 °F 45% 29.99 in 10.0 mi NW 19.6 mph 29.9 mph N/A   Clear
10:15 AM 59.0 °F 37.4 °F 45% 29.98 in 9.0 mi WNW 21.9 mph 31.1 mph N/A   Clear
10:35 AM - - N/A% 29.98 in 9.0 mi NW 23.0 mph 28.8 mph N/A   Unknown
10:55 AM 62.6 °F 37.4 °F 39% 29.98 in 10.0 mi NW 25.3 mph 31.1 mph N/A   Clear
11:15 AM 62.6 °F 37.4 °F 39% 29.99 in 9.0 mi NW 24.2 mph 29.9 mph N/A   Clear
11:35 AM 62.6 °F 39.2 °F 42% 29.98 in 10.0 mi NW 24.2 mph 31.1 mph N/A   Clear
11:55 AM 62.6 °F 39.2 °F 42% 29.98 in 9.0 mi NW 23.0 mph 32.2 mph N/A   Clear
12:15 PM 62.6 °F 39.2 °F 42% 29.98 in 9.0 mi NW 25.3 mph 32.2 mph N/A   Clear
12:35 PM 62.6 °F 39.2 °F 42% 29.98 in 9.0 mi NW 28.8 mph 34.5 mph N/A   Clear
12:55 PM 62.6 °F 39.2 °F 42% 29.98 in 8.0 mi NW 26.5 mph 35.7 mph N/A   Clear
1:15 PM 64.4 °F 39.2 °F 40% 29.97 in 9.0 mi NW 25.3 mph 33.4 mph N/A   Clear
1:35 PM 64.4 °F 41.0 °F 42% 29.97 in 10.0 mi NW 23.0 mph 33.4 mph N/A   Clear
1:55 PM 64.4 °F 41.0 °F 42% 29.97 in 9.0 mi NW 26.5 mph 32.2 mph N/A   Clear
2:15 PM 64.4 °F 41.0 °F 42% 29.97 in 9.0 mi NW 25.3 mph 33.4 mph N/A   Clear
2:35 PM 66.2 °F 41.0 °F 40% 29.97 in 9.0 mi NW 25.3 mph 32.2 mph N/A   Clear
2:55 PM 66.2 °F 41.0 °F 40% 29.96 in 9.0 mi NW 21.9 mph 31.1 mph N/A   Clear
3:15 PM 66.2 °F 41.0 °F 40% 29.96 in 9.0 mi NW 26.5 mph 32.2 mph N/A   Clear
3:35 PM 66.2 °F 41.0 °F 40% 29.95 in 10.0 mi NW 23.0 mph 29.9 mph N/A   Clear
3:55 PM 66.2 °F 39.2 °F 37% 29.95 in 10.0 mi NNW 24.2 mph 32.2 mph N/A   Clear
4:15 PM 66.2 °F 39.2 °F 37% 29.95 in 10.0 mi NW 23.0 mph 34.5 mph N/A   Clear
4:35 PM 66.2 °F 39.2 °F 37% 29.94 in 9.0 mi NW 20.7 mph 32.2 mph N/A   Clear
4:55 PM 66.2 °F 39.2 °F 37% 29.94 in 10.0 mi NW 23.0 mph 32.2 mph N/A   Clear
5:15 PM 64.4 °F 39.2 °F 40% 29.94 in 10.0 mi NW 21.9 mph 29.9 mph N/A   Clear
5:35 PM 66.2 °F 37.4 °F 35% 29.93 in 10.0 mi NW 23.0 mph 29.9 mph N/A   Clear
5:55 PM 64.4 °F 37.4 °F 37% 29.93 in 10.0 mi NW 20.7 mph 28.8 mph N/A   Clear
6:15 PM 64.4 °F 35.6 °F 34% 29.93 in 10.0 mi WNW 20.7 mph 28.8 mph N/A   Clear
6:35 PM 64.4 °F 37.4 °F 37% 29.92 in 10.0 mi NW 18.4 mph 28.8 mph N/A   Clear
6:55 PM 62.6 °F 35.6 °F 37% 29.92 in 10.0 mi WNW 17.3 mph 27.6 mph N/A   Clear
7:15 PM 62.6 °F 35.6 °F 37% 29.93 in 10.0 mi NW 19.6 mph 31.1 mph N/A   Clear
7:35 PM 60.8 °F 37.4 °F 42% 29.92 in 10.0 mi WNW 20.7 mph 28.8 mph N/A   Clear
7:55 PM 59.0 °F 37.4 °F 45% 29.92 in 10.0 mi WNW 16.1 mph 23.0 mph N/A   Clear
8:15 PM 59.0 °F 37.4 °F 45% 29.92 in 10.0 mi WNW 12.7 mph 19.6 mph N/A   Clear
8:35 PM 59.0 °F 37.4 °F 45% 29.93 in 10.0 mi WNW 11.5 mph - N/A   Clear
8:55 PM 57.2 °F 35.6 °F 44% 29.93 in 10.0 mi WNW 9.2 mph - N/A   Clear
9:15 PM 57.2 °F 35.6 °F 44% 29.93 in 10.0 mi WNW 12.7 mph - N/A   Clear
9:35 PM 57.2 °F 33.8 °F 41% 29.94 in 10.0 mi WNW 11.5 mph 17.3 mph N/A   Clear
9:55 PM 57.2 °F 37.4 °F 48% 29.94 in 10.0 mi WNW 15.0 mph 21.9 mph N/A   Clear
10:15 PM 57.2 °F 37.4 °F 48% 29.94 in 10.0 mi West 15.0 mph 23.0 mph N/A   Clear
10:35 PM 57.2 °F 37.4 °F 48% 29.95 in 10.0 mi WNW 17.3 mph 20.7 mph N/A   Clear
11:15 PM 57.2 °F 37.4 °F 48% 29.95 in 10.0 mi WNW 18.4 mph 24.2 mph N/A   Unknown
11:35 PM 57.2 °F 35.6 °F 44% 29.95 in 10.0 mi WNW 20.7 mph 25.3 mph N/A   Mostly Cloudy
11:55 PM 57.2 °F 33.8 °F 41% 29.95 in 10.0 mi WNW 17.3 mph 26.5 mph N/A   Overcast